Location: Ch�risy
(50.2331°N, 2.9131°E)
Time: 01:45:16
(UTC+00:00)

Cosmos 1689 Rocket - Pass Details

Date: 17 January 2021
Orbit: 353 x 367 km, 97.5° (Epoch: 28 February)

Event Time Altitude Azimuth Distance (km) Brightness Sun altitude
Exits shadow 18:23:05 17° 175° (S) 1,009 4.2 -19.5°
Drops below altitude 10° 18:23:53 10° 180° (S) 1,337 4.9 -19.6°
Sets 18:25:49 0° 185° (S) 2,173 6.1 -19.9°
